sat.trackr.live / text

‹ back to catalog

STARLINK-4011

NORAD 52615 · 2022-052T

PAYLOAD ACTIVE UNKNOWN

§ Identity

Operator
Country
US
Launch date
2022-05-14
Launch site
AFETR
Launch vehicle
Mass (kg)
RCS (m²)

Purposes: comms

External: N2YO · Heavens-Above · Gunter

§ Orbital elements

Epoch: 2026-09-20T03:32:17.757600Z

Period
93.79 min
Inclination
53.1584°
Eccentricity
0.0000980
Mean motion
15.35401325 rev/d
Perigee alt
459.1 km
Apogee alt
460.4 km
Semi-major
6,837.9 km
B*
3.1057e-5
RAAN
117.7890°
Arg perigee
96.7703°
Mean anomaly
263.3412°
Rev number
24,031

§ Raw data

STARLINK-40111 52615U 22052T   26263.14742775  .00000703  00000+0  31057-4 0  99952 52615  53.1584 117.7890 0000980  96.7703 263.3412 15.35401325240319

JSON: /api/v1/satellites/52615 · /tle

For live sub-satellite position, see the globe view (requires WebGL).

§ Visibility from observer

Set your observer location to see the next 7 days of passes ≥ 10°. The values pass through the URL so the page stays shareable.

No JS? Fill the form by hand. The geolocation button needs JavaScript.